| time (UTC) | temp F | wind direction | speed MPH | gust MPH | rain 1hr in | rain 24hr in | rain mn in | humidity % | barometer mb |
| 20260502234741 | 49 | 346 | 6.0 | 12.0 | 0.00 | 0.02 | 0.00 | 49 | 1017.6 |
| 20260502233740 | 49 | 356 | 6.0 | 12.0 | 0.00 | 0.02 | 0.00 | 47 | 1017.6 |
| 20260502232739 | 50 | 311 | 6.0 | 9.0 | 0.00 | 0.02 | 0.00 | 46 | 1017.5 |
| 20260502232237 | 50 | 326 | 3.0 | 10.0 | 0.00 | 0.02 | 0.00 | 46 | 1017.5 |
| 20260502231736 | 50 | 312 | 5.0 | 15.0 | 0.00 | 0.02 | 0.00 | 46 | 1017.5 |
| 20260502231236 | 50 | 359 | 10.0 | 13.0 | 0.00 | 0.02 | 0.00 | 46 | 1017.5 |
| 20260502230735 | 50 | 69 | 5.0 | 11.0 | 0.00 | 0.02 | 0.00 | 45 | 1017.6 |
| 20260502230235 | 50 | 329 | 7.0 | 14.0 | 0.00 | 0.02 | 0.00 | 45 | 1017.4 |
| 20260502225735 | 50 | 336 | 7.0 | 14.0 | 0.00 | 0.02 | 0.00 | 45 | 1017.4 |
| 20260502225234 | 50 | 295 | 7.0 | 13.0 | 0.00 | 0.02 | 0.00 | 43 | 1017.4 |
| 20260502224733 | 50 | 311 | 9.0 | 12.0 | 0.00 | 0.02 | 0.00 | 44 | 1017.4 |
| 20260502224233 | 50 | 354 | 6.0 | 12.0 | 0.00 | 0.02 | 0.00 | 44 | 1017.3 |
| 20260502223732 | 50 | 335 | 7.0 | 10.0 | 0.00 | 0.02 | 0.00 | 44 | 1017.3 |
| 20260502223232 | 50 | 302 | 5.0 | 10.0 | 0.00 | 0.02 | 0.00 | 43 | 1017.2 |
| 20260502222731 | 51 | 353 | 5.0 | 11.0 | 0.00 | 0.02 | 0.00 | 43 | 1017.3 |
| 20260502222231 | 51 | 325 | 5.0 | 13.0 | 0.00 | 0.02 | 0.00 | 43 | 1017.3 |
| 20260502221730 | 51 | 339 | 10.0 | 18.0 | 0.00 | 0.02 | 0.00 | 43 | 1017.3 |
| 20260502221230 | 52 | 257 | 5.0 | 12.0 | 0.00 | 0.02 | 0.00 | 42 | 1017.2 |
| 20260502220729 | 51 | 329 | 7.0 | 12.0 | 0.00 | 0.02 | 0.00 | 41 | 1017.2 |
| 20260502220229 | 51 | 340 | 9.0 | 9.0 | 0.00 | 0.02 | 0.00 | 42 | 1017.1 |
| 20260502215728 | 51 | 307 | 7.0 | 12.0 | 0.00 | 0.02 | 0.00 | 43 | 1017.1 |
| 20260502215228 | 51 | 326 | 8.0 | 14.0 | 0.00 | 0.02 | 0.00 | 42 | 1017.1 |
| 20260502214727 | 51 | 285 | 6.0 | 11.0 | 0.00 | 0.02 | 0.00 | 42 | 1017.0 |
| 20260502214227 | 52 | 302 | 7.0 | 8.0 | 0.00 | 0.02 | 0.00 | 41 | 1017.0 |
| 20260502213726 | 51 | 277 | 5.0 | 14.0 | 0.00 | 0.02 | 0.00 | 42 | 1017.0 |
| 20260502213226 | 51 | 339 | 9.0 | 15.0 | 0.00 | 0.02 | 0.00 | 42 | 1017.0 |
| 20260502212725 | 52 | 311 | 4.0 | 8.0 | 0.00 | 0.02 | 0.00 | 42 | 1016.9 |
| 20260502212224 | 51 | 336 | 6.0 | 9.0 | 0.00 | 0.02 | 0.00 | 42 | 1017.0 |
| 20260502211723 | 51 | 328 | 3.0 | 8.0 | 0.00 | 0.02 | 0.00 | 42 | 1017.0 |
| 20260502211222 | 51 | 32 | 6.0 | 14.0 | 0.00 | 0.02 | 0.00 | 42 | 1016.9 |
| 20260502210221 | 51 | 350 | 6.0 | 15.0 | 0.00 | 0.02 | 0.00 | 42 | 1016.9 |
| 20260502205721 | 51 | 270 | 10.0 | 15.0 | 0.00 | 0.02 | 0.00 | 42 | 1016.9 |
| 20260502205220 | 51 | 318 | 7.0 | 11.0 | 0.00 | 0.02 | 0.00 | 41 | 1016.9 |
| 20260502204720 | 51 | 277 | 8.0 | 15.0 | 0.00 | 0.02 | 0.00 | 41 | 1016.9 |
| 20260502204219 | 51 | 323 | 6.0 | 16.0 | 0.00 | 0.02 | 0.00 | 41 | 1016.8 |
| 20260502203719 | 51 | 311 | 12.0 | 11.0 | 0.00 | 0.02 | 0.00 | 41 | 1016.9 |
| 20260502203218 | 51 | 329 | 6.0 | 14.0 | 0.00 | 0.02 | 0.00 | 39 | 1016.9 |
| 20260502202718 | 51 | 322 | 10.0 | 14.0 | 0.00 | 0.02 | 0.00 | 40 | 1017.0 |
| 20260502202217 | 51 | 333 | 6.0 | 10.0 | 0.00 | 0.02 | 0.00 | 41 | 1017.0 |
| 20260502201717 | 51 | 350 | 6.0 | 13.0 | 0.00 | 0.02 | 0.00 | 41 | 1017.1 |
| 20260502201216 | 51 | 314 | 7.0 | 13.0 | 0.00 | 0.02 | 0.00 | 40 | 1017.2 |
| 20260502200716 | 51 | 297 | 7.0 | 11.0 | 0.00 | 0.02 | 0.00 | 40 | 1017.1 |
| 20260502195713 | 51 | 359 | 11.0 | 15.0 | 0.00 | 0.02 | 0.00 | 41 | 1017.3 |
| 20260502195212 | 51 | 347 | 8.0 | 18.0 | 0.00 | 0.02 | 0.00 | 41 | 1017.2 |
| 20260502194711 | 51 | 309 | 11.0 | 14.0 | 0.00 | 0.02 | 0.00 | 40 | 1017.2 |
| 20260502193710 | 51 | 342 | 6.0 | 16.0 | 0.00 | 0.02 | 0.00 | 41 | 1017.3 |
| 20260502193210 | 52 | 285 | 7.0 | 14.0 | 0.00 | 0.02 | 0.00 | 41 | 1017.2 |
| 20260502192209 | 51 | 288 | 9.0 | 14.0 | 0.00 | 0.02 | 0.00 | 43 | 1017.2 |
| 20260502191708 | 51 | 314 | 2.0 | 15.0 | 0.00 | 0.02 | 0.00 | 41 | 1017.3 |
| 20260502191208 | 51 | 17 | 9.0 | 15.0 | 0.00 | 0.02 | 0.00 | 41 | 1017.5 |
| 20260502190707 | 51 | 335 | 8.0 | 17.0 | 0.00 | 0.02 | 0.00 | 42 | 1017.5 |
| 20260502190207 | 50 | 262 | 10.0 | 15.0 | 0.00 | 0.02 | 0.00 | 42 | 1017.5 |
| 20260502185706 | 51 | 333 | 8.0 | 17.0 | 0.00 | 0.02 | 0.00 | 43 | 1017.5 |
| 20260502185206 | 51 | 277 | 5.0 | 13.0 | 0.00 | 0.02 | 0.00 | 40 | 1017.6 |
| 20260502184705 | 50 | 276 | 7.0 | 20.0 | 0.00 | 0.02 | 0.00 | 41 | 1017.7 |
| 20260502184205 | 50 | 271 | 14.0 | 19.0 | 0.00 | 0.02 | 0.00 | 41 | 1017.6 |
| 20260502183704 | 50 | 24 | 6.0 | 20.0 | 0.00 | 0.02 | 0.00 | 40 | 1017.7 |
| 20260502183204 | 50 | 305 | 6.0 | 17.0 | 0.00 | 0.02 | 0.00 | 42 | 1017.7 |
| 20260502182203 | 51 | 295 | 10.0 | 15.0 | 0.00 | 0.02 | 0.00 | 42 | 1017.7 |
| 20260502181702 | 50 | 250 | 8.0 | 17.0 | 0.00 | 0.02 | 0.00 | 41 | 1017.8 |
| 20260502181200 | 50 | 255 | 8.0 | 15.0 | 0.00 | 0.02 | 0.00 | 42 | 1017.8 |
| 20260502180700 | 50 | 314 | 8.0 | 14.0 | 0.00 | 0.02 | 0.00 | 42 | 1017.8 |
| 20260502180159 | 50 | 321 | 9.0 | 15.0 | 0.00 | 0.02 | 0.00 | 41 | 1017.8 |
| 20260502170151 | 49 | 326 | 7.0 | 14.0 | 0.00 | 0.02 | 0.00 | 43 | 1018.1 |
| 20260502164149 | 49 | 264 | 7.0 | 12.0 | 0.00 | 0.02 | 0.00 | 42 | 1018.3 |
| 20260502163649 | 50 | 245 | 4.0 | 15.0 | 0.00 | 0.02 | 0.00 | 44 | 1018.2 |
| 20260502163148 | 49 | 350 | 11.0 | 14.0 | 0.00 | 0.02 | 0.00 | 43 | 1018.4 |
| 20260502162647 | 49 | 315 | 8.0 | 14.0 | 0.00 | 0.02 | 0.00 | 44 | 1018.4 |
| 20260502162147 | 48 | 333 | 5.0 | 10.0 | 0.00 | 0.02 | 0.00 | 47 | 1018.6 |
| 20260502161646 | 48 | 307 | 8.0 | 14.0 | 0.00 | 0.02 | 0.00 | 47 | 1018.4 |
| 20260502161146 | 48 | 304 | 10.0 | 16.0 | 0.00 | 0.02 | 0.00 | 46 | 1018.6 |
| 20260502160645 | 49 | 359 | 8.0 | 13.0 | 0.00 | 0.02 | 0.00 | 46 | 1018.6 |
| 20260502160145 | 49 | 359 | 7.0 | 12.0 | 0.00 | 0.02 | 0.00 | 45 | 1018.7 |
| 20260502152141 | 47 | 304 | 5.0 | 12.0 | 0.00 | 0.02 | 0.00 | 43 | 1018.7 |
| 20260502151640 | 47 | 318 | 6.0 | 11.0 | 0.00 | 0.02 | 0.00 | 46 | 1018.7 |
| 20260502151140 | 47 | 287 | 6.0 | 10.0 | 0.00 | 0.02 | 0.00 | 46 | 1018.7 |
| 20260502150139 | 46 | 305 | 9.0 | 13.0 | 0.00 | 0.02 | 0.00 | 45 | 1018.7 |
| 20260502130625 | 43 | 308 | 5.0 | 9.0 | 0.00 | 0.02 | 0.00 | 58 | 1018.6 |
| 20260502130125 | 43 | 70 | 2.0 | 6.0 | 0.00 | 0.02 | 0.00 | 59 | 1018.3 |
| 20260502123622 | 41 | 333 | 6.0 | 10.0 | 0.00 | 0.02 | 0.00 | 62 | 1018.3 |
| 20260502123122 | 41 | 62 | 5.0 | 7.0 | 0.00 | 0.02 | 0.00 | 64 | 1018.3 |
| 20260502122621 | 41 | 329 | 7.0 | 12.0 | 0.00 | 0.02 | 0.00 | 65 | 1018.3 |
| 20260502122121 | 41 | 322 | 4.0 | 7.0 | 0.00 | 0.02 | 0.00 | 65 | 1018.3 |
| 20260502121620 | 41 | 14 | 2.0 | 7.0 | 0.00 | 0.02 | 0.00 | 67 | 1018.2 |
| 20260502120619 | 40 | 345 | 6.0 | 13.0 | 0.00 | 0.02 | 0.00 | 67 | 1018.2 |
| 20260502115618 | 40 | 342 | 6.0 | 8.0 | 0.00 | 0.02 | 0.00 | 72 | 1018.0 |
| 20260502115118 | 40 | 319 | 6.0 | 10.0 | 0.00 | 0.02 | 0.00 | 75 | 1017.9 |
| 20260502114617 | 40 | 8 | 3.0 | 8.0 | 0.00 | 0.02 | 0.00 | 78 | 1017.9 |
| 20260502114116 | 40 | 333 | 3.0 | 8.0 | 0.00 | 0.02 | 0.00 | 78 | 1017.9 |
| 20260502113615 | 40 | 17 | 4.0 | 7.0 | 0.00 | 0.02 | 0.00 | 78 | 1017.8 |
| 20260502113115 | 40 | 316 | 5.0 | 7.0 | 0.00 | 0.02 | 0.00 | 77 | 1017.7 |
| 20260502112614 | 40 | 323 | 4.0 | 6.0 | 0.00 | 0.02 | 0.00 | 77 | 1017.9 |
| 20260502112113 | 40 | 7 | 0.0 | 6.0 | 0.00 | 0.02 | 0.00 | 77 | 1017.8 |
| 20260502111613 | 40 | 316 | 0.0 | 2.0 | 0.00 | 0.02 | 0.00 | 77 | 1017.9 |
| 20260502111112 | 40 | 340 | 0.0 | 0.0 | 0.00 | 0.02 | 0.00 | 77 | 1017.8 |
| 20260502110612 | 40 | 340 | 0.0 | 0.0 | 0.00 | 0.02 | 0.00 | 77 | 1017.7 |
| 20260502110111 | 40 | 340 | 0.0 | 0.0 | 0.00 | 0.02 | 0.00 | 77 | 1017.6 |
| 20260502105611 | 40 | 340 | 0.0 | 0.0 | 0.00 | 0.02 | 0.00 | 76 | 1017.5 |
| 20260502105110 | 40 | 340 | 0.0 | 0.0 | 0.00 | 0.02 | 0.00 | 76 | 1017.5 |
| 20260502104610 | 40 | 340 | 0.0 | 0.0 | 0.00 | 0.02 | 0.00 | 76 | 1017.5 |
| 20260502103609 | 40 | 340 | 0.0 | 0.0 | 0.00 | 0.02 | 0.00 | 77 | 1017.5 |
| 20260502102608 | 41 | 340 | 0.0 | 0.0 | 0.00 | 0.02 | 0.00 | 77 | 1017.6 |
| 20260502102107 | 41 | 340 | 0.0 | 0.0 | 0.00 | 0.02 | 0.00 | 77 | 1017.6 |
| 20260502101607 | 41 | 340 | 0.0 | 0.0 | 0.00 | 0.02 | 0.00 | 78 | 1017.5 |
| 20260502101104 | 41 | 340 | 0.0 | 0.0 | 0.00 | 0.02 | 0.00 | 78 | 1017.5 |
| 20260502100603 | 40 | 340 | 0.0 | 0.0 | 0.00 | 0.02 | 0.00 | 78 | 1017.5 |
| 20260502091056 | 40 | 340 | 0.0 | 0.0 | 0.00 | 0.02 | 0.00 | 80 | 1017.4 |
| 20260502090555 | 40 | 340 | 0.0 | 0.0 | 0.00 | 0.02 | 0.00 | 79 | 1017.6 |
| 20260502071040 | 42 | 326 | 0.0 | 5.0 | 0.00 | 0.02 | 0.00 | 69 | 1017.2 |
| 20260502070540 | 42 | 330 | 3.0 | 5.0 | 0.00 | 0.02 | 0.00 | 69 | 1017.2 |
| 20260502070039 | 42 | 345 | 4.0 | 5.0 | 0.00 | 0.02 | 0.00 | 70 | 1017.2 |
| 20260502065539 | 42 | 335 | 3.0 | 2.0 | 0.00 | 0.02 | 0.00 | 70 | 1017.3 |
| 20260502065038 | 42 | 4 | 0.0 | 5.0 | 0.00 | 0.02 | 0.00 | 70 | 1017.2 |
| 20260502064538 | 42 | 32 | 2.0 | 0.0 | 0.00 | 0.02 | 0.00 | 70 | 1017.3 |
| 20260502064037 | 42 | 7 | 0.0 | 4.0 | 0.00 | 0.02 | 0.00 | 69 | 1017.5 |
| 20260502063537 | 43 | 7 | 0.0 | 5.0 | 0.00 | 0.02 | 0.00 | 69 | 1017.6 |
| 20260502063036 | 43 | 357 | 1.0 | 0.0 | 0.00 | 0.02 | 0.00 | 69 | 1017.7 |
| 20260502062535 | 43 | 4 | 0.0 | 0.0 | 0.00 | 0.02 | 0.00 | 69 | 1017.7 |
| 20260502062034 | 43 | 4 | 0.0 | 0.0 | 0.00 | 0.02 | 0.00 | 69 | 1017.8 |
| 20260502061534 | 43 | 4 | 0.0 | 0.0 | 0.00 | 0.02 | 0.00 | 70 | 1017.8 |
| 20260502061033 | 43 | 4 | 0.0 | 3.0 | 0.00 | 0.02 | 0.00 | 71 | 1017.9 |
| 20260502060532 | 43 | 4 | 0.0 | 4.0 | 0.00 | 0.02 | 0.00 | 71 | 1018.0 |
| 20260502060032 | 43 | 346 | 1.0 | 4.0 | 0.00 | 0.02 | 0.00 | 72 | 1018.1 |
| 20260502055532 | 43 | 340 | 3.0 | 4.0 | 0.00 | 0.02 | 0.00 | 73 | 1018.0 |
| 20260502055031 | 43 | 347 | 0.0 | 0.0 | 0.00 | 0.02 | 0.00 | 73 | 1018.0 |
| 20260502054530 | 43 | 347 | 0.0 | 0.0 | 0.00 | 0.02 | 0.00 | 73 | 1018.0 |
| 20260502054030 | 43 | 347 | 0.0 | 0.0 | 0.00 | 0.02 | 0.00 | 73 | 1018.0 |
| 20260502053529 | 43 | 347 | 0.0 | 3.0 | 0.00 | 0.02 | 0.00 | 73 | 1017.9 |
| 20260502053029 | 43 | 347 | 0.0 | 0.0 | 0.00 | 0.02 | 0.00 | 74 | 1017.9 |
| 20260502052528 | 43 | 28 | 0.0 | 1.0 | 0.00 | 0.02 | 0.00 | 74 | 1017.8 |
| 20260502052028 | 43 | 28 | 0.0 | 3.0 | 0.00 | 0.02 | 0.00 | 74 | 1017.8 |
| 20260502051026 | 43 | 316 | 0.0 | 0.0 | 0.00 | 0.02 | 0.00 | 77 | 1017.9 |
| 20260502050525 | 43 | 316 | 0.0 | 0.0 | 0.00 | 0.02 | 0.00 | 78 | 1017.9 |
| 20260502050025 | 43 | 316 | 0.0 | 0.0 | 0.00 | 0.02 | 0.00 | 78 | 1017.9 |
| 20260502045524 | 43 | 316 | 0.0 | 0.0 | 0.00 | 0.00 | 0.02 | 79 | 1018.0 |
| 20260502045024 | 43 | 316 | 0.0 | 0.0 | 0.00 | 0.00 | 0.02 | 80 | 1018.0 |
| 20260502044523 | 43 | 316 | 0.0 | 0.0 | 0.00 | 0.00 | 0.02 | 82 | 1017.9 |
| 20260502044021 | 43 | 316 | 0.0 | 0.0 | 0.00 | 0.00 | 0.02 | 82 | 1017.9 |
| 20260502043521 | 43 | 316 | 0.0 | 0.0 | 0.00 | 0.00 | 0.02 | 82 | 1018.0 |
| 20260502043020 | 43 | 316 | 0.0 | 0.0 | 0.00 | 0.00 | 0.02 | 83 | 1017.9 |
| 20260502042520 | 43 | 316 | 0.0 | 0.0 | 0.00 | 0.00 | 0.02 | 83 | 1017.9 |
| 20260502042020 | 43 | 316 | 0.0 | 0.0 | 0.00 | 0.00 | 0.02 | 84 | 1017.9 |
| 20260502041518 | 43 | 316 | 0.0 | 0.0 | 0.00 | 0.00 | 0.02 | 84 | 1017.9 |
| 20260502041017 | 43 | 316 | 0.0 | 0.0 | 0.00 | 0.00 | 0.02 | 84 | 1017.9 |
| 20260502040517 | 43 | 316 | 0.0 | 0.0 | 0.00 | 0.00 | 0.02 | 84 | 1017.9 |
| 20260502040016 | 43 | 316 | 0.0 | 0.0 | 0.00 | 0.00 | 0.02 | 85 | 1017.9 |
| 20260502035516 | 43 | 316 | 0.0 | 0.0 | 0.00 | 0.00 | 0.02 | 85 | 1017.9 |
| 20260502035015 | 43 | 316 | 0.0 | 0.0 | 0.00 | 0.00 | 0.02 | 85 | 1017.9 |
| 20260502034013 | 43 | 316 | 0.0 | 0.0 | 0.00 | 0.00 | 0.02 | 83 | 1017.9 |
| 20260502033512 | 43 | 316 | 0.0 | 0.0 | 0.00 | 0.00 | 0.02 | 81 | 1017.9 |
| 20260502033011 | 44 | 316 | 0.0 | 0.0 | 0.00 | 0.00 | 0.02 | 81 | 1017.8 |
| 20260502032009 | 44 | 316 | 0.0 | 0.0 | 0.00 | 0.00 | 0.02 | 79 | 1017.9 |
| 20260502031509 | 45 | 316 | 0.0 | 0.0 | 0.00 | 0.00 | 0.02 | 77 | 1017.8 |
| 20260502031008 | 45 | 316 | 0.0 | 0.0 | 0.00 | 0.00 | 0.02 | 76 | 1017.7 |
| 20260502030508 | 45 | 316 | 0.0 | 0.0 | 0.00 | 0.00 | 0.02 | 74 | 1017.7 |
| 20260502030007 | 46 | 316 | 0.0 | 0.0 | 0.00 | 0.00 | 0.02 | 73 | 1017.7 |
| 20260502025507 | 46 | 316 | 0.0 | 0.0 | 0.00 | 0.00 | 0.02 | 72 | 1017.7 |
| 20260502025005 | 46 | 316 | 0.0 | 0.0 | 0.00 | 0.00 | 0.02 | 72 | 1017.6 |
| 20260502024504 | 46 | 316 | 0.0 | 0.0 | 0.00 | 0.00 | 0.02 | 72 | 1017.6 |
| 20260502023503 | 47 | 316 | 0.0 | 0.0 | 0.00 | 0.00 | 0.02 | 70 | 1017.7 |
| 20260502023003 | 47 | 316 | 0.0 | 0.0 | 0.00 | 0.00 | 0.02 | 69 | 1017.8 |
| 20260502022001 | 48 | 316 | 0.0 | 3.0 | 0.00 | 0.00 | 0.02 | 67 | 1017.6 |
| 20260502021500 | 48 | 1 | 1.0 | 4.0 | 0.00 | 0.00 | 0.02 | 67 | 1017.6 |
| 20260502021000 | 48 | 354 | 0.0 | 6.0 | 0.00 | 0.00 | 0.02 | 66 | 1017.4 |
| 20260502020459 | 48 | 359 | 3.0 | 4.0 | 0.00 | 0.00 | 0.02 | 65 | 1017.3 |
| 20260502015959 | 48 | 356 | 0.0 | 3.0 | 0.00 | 0.00 | 0.02 | 64 | 1017.4 |
| 20260502014958 | 49 | 345 | 3.0 | 6.0 | 0.00 | 0.00 | 0.02 | 63 | 1017.1 |
| 20260502014458 | 49 | 359 | 4.0 | 4.0 | 0.00 | 0.00 | 0.02 | 62 | 1017.0 |
| 20260502013957 | 49 | 359 | 3.0 | 0.0 | 0.00 | 0.00 | 0.02 | 62 | 1016.9 |
| 20260502013456 | 49 | 339 | 0.0 | 0.0 | 0.00 | 0.00 | 0.02 | 61 | 1016.9 |
| 20260502012956 | 49 | 339 | 0.0 | 1.0 | 0.00 | 0.00 | 0.02 | 61 | 1016.8 |
| 20260502012455 | 49 | 339 | 0.0 | 3.0 | 0.00 | 0.00 | 0.02 | 60 | 1016.7 |
| 20260502011955 | 49 | 328 | 1.0 | 5.0 | 0.00 | 0.00 | 0.02 | 59 | 1016.6 |
| 20260502011454 | 49 | 7 | 3.0 | 6.0 | 0.00 | 0.00 | 0.02 | 59 | 1016.5 |
| 20260502010953 | 49 | 338 | 3.0 | 4.0 | 0.00 | 0.00 | 0.02 | 59 | 1016.5 |
| 20260502010453 | 50 | 346 | 1.0 | 3.0 | 0.00 | 0.00 | 0.02 | 58 | 1016.4 |
| 20260502005952 | 50 | 262 | 0.0 | 3.0 | 0.00 | 0.00 | 0.02 | 57 | 1016.2 |
| 20260502005452 | 50 | 315 | 0.0 | 4.0 | 0.00 | 0.00 | 0.02 | 57 | 1016.2 |
| 20260502004951 | 50 | 321 | 0.0 | 6.0 | 0.00 | 0.00 | 0.02 | 57 | 1016.0 |
| 20260502004451 | 50 | 328 | 1.0 | 5.0 | 0.00 | 0.00 | 0.02 | 56 | 1015.9 |
| 20260502003949 | 50 | 333 | 4.0 | 7.0 | 0.00 | 0.00 | 0.02 | 56 | 1015.7 |
| 20260502003449 | 51 | 333 | 4.0 | 9.0 | 0.00 | 0.00 | 0.02 | 55 | 1015.6 |
| 20260502002948 | 51 | 322 | 4.0 | 9.0 | 0.00 | 0.00 | 0.02 | 55 | 1015.7 |
| 20260502002448 | 51 | 298 | 2.0 | 5.0 | 0.00 | 0.00 | 0.02 | 55 | 1015.6 |
| 20260502001947 | 51 | 349 | 2.0 | 5.0 | 0.00 | 0.00 | 0.02 | 55 | 1015.5 |
| 20260502001447 | 51 | 338 | 2.0 | 6.0 | 0.00 | 0.00 | 0.02 | 55 | 1015.6 |
| 20260502000945 | 51 | 315 | 3.0 | 6.0 | 0.00 | 0.00 | 0.02 | 54 | 1015.6 |
| 20260502000446 | 51 | 323 | 3.0 | 6.0 | 0.00 | 0.00 | 0.02 | 54 | 1015.7 |
| 20260501235944 | 51 | 314 | 3.0 | 7.0 | 0.00 | 0.00 | 0.02 | 54 | 1015.8 |
| 20260501235444 | 51 | 307 | 3.0 | 8.0 | 0.00 | 0.00 | 0.02 | 53 | 1015.7 |
| 20260501234943 | 52 | 300 | 4.0 | 12.0 | 0.00 | 0.00 | 0.02 | 53 | 1015.7 |